Location: Newark
(13.0328°N, 9.6142°E)
Time: 05:10:36
(UTC+00:00)

LightSail 2 - Visible Passes

Search period start: 17 October 2019 00:00
Search period end: 27 October 2019 00:00
Orbit: 707 x 722 km, 24.0° (Epoch: 16 October)

Date Brightness Start Highest point End Pass type
(mag) Time Alt. Az. Time Alt. Az. Time Alt. Az.
17 Oct 6.5 18:43:39 10° NW 18:47:26 28° N 18:47:26 28° N visible
18 Oct 6.5 17:46:06 10° NW 17:50:23 26° N 17:53:28 15° NE visible
18 Oct 7.7 19:31:25 10° WNW 19:32:28 16° NW 19:32:28 16° NW visible
19 Oct 5.9 18:33:56 10° NW 18:38:32 38° N 18:38:32 38° N visible
20 Oct 6.2 17:36:25 10° NW 17:41:01 32° NNE 17:44:38 15° ENE visible
20 Oct 7.2 19:21:40 10° WNW 19:23:39 23° WNW 19:23:39 23° WNW visible
21 Oct 5.2 18:24:08 10° WNW 18:29:12 57° NNE 18:29:48 53° NE visible
22 Oct 5.7 17:26:36 10° NW 17:31:31 44° NNE 17:36:02 12° E visible
22 Oct 6.6 19:12:03 10° WNW 19:15:03 34° W 19:15:03 34° W visible
23 Oct 5.1 18:14:23 10° WNW 18:19:32 88° SSW 18:21:21 41° ESE visible
24 Oct 5.2 17:16:46 10° WNW 17:21:53 68° NNE 17:27:02 10° ESE visible
24 Oct 6.5 19:02:41 10° W 19:06:45 34° SW 19:06:45 34° SW visible
25 Oct 5.8 18:04:47 10° W 18:09:46 51° SSW 18:13:12 20° SE visible
26 Oct 7.1 18:53:49 10° WSW 18:57:35 20° SSW 18:58:45 19° S visible
